Location: Cisewo
(53.3833°N, 14.9000°E)
Time: 13:05:39
(UTC+00:00)

Cosmos 1933 - Pass Details

Date: 18 April 2021
Orbit: 546 x 564 km, 82.5° (Epoch: 16 May)

Event Time Altitude Azimuth Distance (km) Brightness Sun altitude
Exits shadow 22:56:53 52° 312° (NW) 711 4.0 -25.4°
Drops below altitude 10° 23:00:28 10° 4° (N) 1,863 7.1 -25.4°
Sets 23:02:42 0° 9° (N) 2,761 8.2 -25.4°
